Morristown, NJ

2:37 AM EST on February 21, 2018 (GMT -0500)
Morristown Municipal

Weather History for KMMU - December, 2013

Change the Weather History Date:

Sunday, December 29, 2013

  Actual Average Record
Temperature  
Mean Temperature 38 °F -  
Max Temperature 44 °F 41 °F 64 °F (1982)
Min Temperature 32 °F 21 °F -5 °F (1933)
Degree Days  
Heating Degree Days 27    
Moisture  
Dew Point 32 °F    
Average Humidity 83    
Maximum Humidity 93    
Minimum Humidity 65    
Precipitation  
Precipitation 0.00 in - - ()
Sea Level Pressure  
Sea Level Pressure 29.85 in    
Wind  
Wind Speed 2 mph (NNW)    
Max Wind Speed 14 mph    
Max Gust Speed 21 mph    
Visibility 8 miles    
Events Rain    
Averages and records for this station are not official NWS values.
T = Trace of Precipitation, MM = Missing Value Source: NWS Daily Summary

Daily Weather History Graph

Daily Weather History Graph

Search for Another Location

Airport or City:

Trip Planner

Search our weather history database for the weather conditions in past years. The results will help you decide how hot, cold, wet, or windy it might be!

Date:

Astronomy

Dec. 29, 2013 Rise Set
Actual Time 7:21 AM EST 4:38 PM EST
Civil Twilight 6:50 AM EST 5:09 PM EST
Nautical Twilight 6:16 AM EST 5:43 PM EST
Astronomical Twilight 5:42 AM EST 6:17 PM EST
Moon 4:01 AM EST (12/29) 2:14 PM EST (12/29)
Length of Visible Light 10h 18m
Length of Day
9h 16m
Waning Crescent, 11% of the Moon is Illuminated
Dec 29
Waning Crescent
Jan 1
New
Jan 7
First Quarter
Jan 15
Full
Jan 24
Last Quarter

Hourly Weather History & Observations

Time (EST) Temp. Windchill Dew Point Humidity Pressure Visibility Wind Dir Wind Speed Gust Speed Precip Events Conditions
12:15 AM 35.6 °F - 26.6 °F 70% 30.07 in 10.0 mi Calm Calm - N/A   Clear
12:35 AM 33.8 °F - 26.6 °F 75% 30.07 in 10.0 mi Calm Calm - N/A   Clear
12:55 AM 33.8 °F - 26.6 °F 75% 30.06 in 10.0 mi Calm Calm - N/A   Clear
1:15 AM 32.0 °F - 26.6 °F 80% 30.06 in 10.0 mi Calm Calm - N/A   Clear
1:35 AM 32.0 °F - 26.6 °F 80% 30.06 in 10.0 mi Calm Calm - N/A   Clear
1:55 AM 32.0 °F - 26.6 °F 80% 30.06 in 10.0 mi Calm Calm - N/A   Clear
2:15 AM 32.0 °F - 28.4 °F 87% 30.07 in 10.0 mi Calm Calm - N/A   Clear
2:35 AM 32.0 °F - 28.4 °F 87% 30.06 in 10.0 mi Calm Calm - N/A   Clear
2:55 AM 32.0 °F - 28.4 °F 87% 30.05 in 10.0 mi Calm Calm - N/A   Clear
3:15 AM 32.0 °F - 28.4 °F 87% 30.04 in 10.0 mi Calm Calm - N/A   Clear
3:35 AM 33.8 °F - 28.4 °F 81% 30.04 in 10.0 mi Calm Calm - N/A   Clear
3:55 AM 33.8 °F - 28.4 °F 81% 30.04 in 10.0 mi Calm Calm - N/A   Clear
4:15 AM 33.8 °F - 28.4 °F 81% 30.03 in 10.0 mi Calm Calm - N/A   Clear
4:35 AM 33.8 °F - 28.4 °F 81% 30.03 in 10.0 mi Calm Calm - N/A   Clear
4:55 AM 33.8 °F - 28.4 °F 81% 30.02 in 10.0 mi Calm Calm - N/A   Clear
5:15 AM 33.8 °F - 28.4 °F 81% 30.01 in 10.0 mi Calm Calm - N/A   Clear
5:35 AM 33.8 °F - 28.4 °F 81% 30.00 in 10.0 mi Calm Calm - N/A   Clear
6:45 AM 33.8 °F - 28.4 °F 81% 30.01 in 10.0 mi Calm Calm - N/A   Scattered Clouds
7:45 AM 33.8 °F - 30.2 °F 87% 30.02 in 10.0 mi Calm Calm - N/A   Overcast
8:45 AM 35.6 °F - 30.2 °F 81% 30.02 in 10.0 mi Calm Calm - N/A   Overcast
9:45 AM 41.0 °F - 30.2 °F 65% 30.00 in 10.0 mi Calm Calm - N/A   Overcast
10:45 AM 42.8 °F - 32.0 °F 66% 29.95 in 10.0 mi Calm Calm - N/A   Overcast
11:45 AM 41.0 °F 37.1 °F 37.4 °F 87% 29.88 in 5.0 mi NNE 5.8 mph - N/A Rain Rain
12:45 PM 37.4 °F 33.8 °F 35.6 °F 93% 29.77 in 2.5 mi NE 4.6 mph - N/A Rain Light Rain
1:45 PM 37.4 °F 30.8 °F 35.6 °F 93% 29.71 in 2.0 mi NE 9.2 mph - N/A Rain Light Rain
2:23 PM 37.4 °F 31.4 °F 35.6 °F 93% 29.64 in 1.8 mi NE 8.1 mph 13.8 mph N/A Rain Rain
2:45 PM 37.4 °F 30.3 °F 35.6 °F 93% 29.60 in 1.8 mi ENE 10.4 mph 20.7 mph N/A Rain Light Rain
3:45 PM 39.2 °F 35.0 °F 37.4 °F 93% 29.55 in 2.0 mi NE 5.8 mph - N/A Rain Light Rain
4:45 PM 39.2 °F 32.0 °F 37.4 °F 93% 29.49 in 2.0 mi WNW 11.5 mph - N/A Rain Light Rain
5:45 PM 41.0 °F 34.7 °F 39.2 °F 93% 29.47 in 5.0 mi North 10.4 mph - N/A   Drizzle
6:45 PM 41.0 °F 35.8 °F 37.4 °F 87% 29.50 in 5.0 mi North 8.1 mph - N/A   Light Drizzle
7:45 PM 41.0 °F 33.5 °F 39.2 °F 93% 29.56 in 7.0 mi North 13.8 mph 18.4 mph N/A   Overcast
8:45 PM 41.0 °F 35.8 °F 37.4 °F 87% 29.62 in 10.0 mi NW 8.1 mph 18.4 mph N/A   Scattered Clouds
9:45 PM 41.0 °F 35.8 °F 37.4 °F 87% 29.64 in 10.0 mi WNW 8.1 mph - N/A   Scattered Clouds
9:55 PM 42.8 °F 37.0 °F 37.4 °F 81% 29.65 in 10.0 mi West 10.4 mph 16.1 mph N/A   Clear
10:15 PM 44.6 °F 39.7 °F 37.4 °F 76% 29.66 in 10.0 mi WNW 9.2 mph - N/A   Clear
10:35 PM 42.8 °F 37.0 °F 37.4 °F 81% 29.66 in 10.0 mi West 10.4 mph 17.3 mph N/A   Clear
10:55 PM 42.8 °F 38.6 °F 35.6 °F 76% 29.68 in 10.0 mi West 6.9 mph - N/A   Clear
11:15 PM 42.8 °F 40.1 °F 35.6 °F 76% 29.69 in 10.0 mi West 4.6 mph - N/A   Clear
11:35 PM 42.8 °F 39.3 °F 35.6 °F 76% 29.70 in 10.0 mi West 5.8 mph - N/A   Clear
11:55 PM 41.0 °F - 35.6 °F 81% 29.70 in 10.0 mi Calm Calm - N/A   Clear